Keps
Threads by month
- ----- 2024 -----
- December
- November
- October
- September
- August
- July
- June
- May
- April
- March
- February
- January
- ----- 2023 -----
- December
- November
- October
- September
- August
- July
- June
- May
- April
- March
- February
- January
- ----- 2022 -----
- December
- November
- October
- September
- August
- July
- June
- May
- April
- March
- February
- January
- ----- 2021 -----
- December
- November
- October
- September
- August
- July
- June
- May
- April
- March
- February
- January
- ----- 2020 -----
- December
- November
- October
- September
- August
- July
- June
- May
- April
- March
- February
- January
- ----- 2019 -----
- December
- November
- October
- September
- August
- July
- June
- May
- April
- March
- February
- January
- ----- 2018 -----
- December
- November
- October
- September
- August
- July
- June
- May
- April
- March
- February
- January
- ----- 2017 -----
- December
- November
- October
- September
- August
- July
- June
- May
- April
- March
- February
- January
- ----- 2016 -----
- December
- November
- October
- September
- August
- July
- June
- May
- April
- March
- February
- January
- ----- 2015 -----
- December
- November
- October
- September
- August
- July
- June
- May
- April
- March
- February
- January
- ----- 2014 -----
- December
- November
- October
- September
- August
- July
- June
- May
- April
- March
- February
- January
- ----- 2013 -----
- December
- November
- October
- September
- August
- July
- June
- May
- April
- March
- February
- January
- ----- 2012 -----
- December
- November
- October
- September
- August
- July
- June
- May
- April
- March
- February
- January
- ----- 2011 -----
- December
- November
- October
- September
- August
- July
- June
- May
- April
- March
- February
- January
- ----- 2010 -----
- December
- November
- October
- September
- August
- July
- June
- May
- April
- March
- February
- January
- ----- 2009 -----
- December
- November
- October
- September
- August
- July
- June
- May
- April
- March
- February
- January
- ----- 2008 -----
- December
- November
- October
- September
- August
- July
- June
- May
- April
- March
- February
- January
- ----- 2007 -----
- December
- November
- October
- September
- August
- July
- June
- May
- April
- March
- February
- January
- ----- 2006 -----
- December
- November
- October
- September
August 2008
- 1 participants
- 13 discussions
The following changes have been made to the Amsat Keplerian List:
1. Satellite CP4 catalog number changed to 31132 reflecting info by Alan
Biddle (WA4SCA), VK5HI, and KI6GIV.
2. Satellite FCAL (Cat # 29667) dropped - satellite has de-orbited.
Thanks to Peter Eijlander, PA0PJE.
1
0
SB KEPS @ AMSAT $ORB08213.N
2Line Orbital Elements 08213.AMSAT
HR AMSAT ORBITAL ELEMENTS FOR AMATEUR SATELLITES IN NASA FORMAT
FROM WA5QGD FORT WORTH,TX July 31, 2008
Send Subscribe/unsubscribe to KEPS at
http://www.amsat.org/mailman/listinfo/keps
BID: ORB08213.N
DECODE 2-LINE ELSETS WITH THE FOLLOWING KEY:
1 AAAAAU 00 0 0 BBBBB.BBBBBBBB .CCCCCCCC 00000-0 00000-0 0 DDDZ
2 AAAAA EEE.EEEE FFF.FFFF GGGGGGG HHH.HHHH III.IIII JJ.JJJJJJJJKKKKKZ
KEY: A-CATALOGNUM B-EPOCHTIME C-DECAY D-ELSETNUM E-INCLINATION F-RAAN
G-ECCENTRICITY H-ARGPERIGEE I-MNANOM J-MNMOTION K-ORBITNUM Z-CHECKSUM
TO ALL RADIO AMATEURS BT
AO-07
1 07530U 74089B 08212.62851404 -.00000027 00000-0 10000-3 0 2409
2 07530 101.4629 242.6681 0011732 176.0916 184.0239 12.53573812542424
AO-10
1 14129U 83058B 08211.94988587 -.00000229 00000-0 10000-3 0 05377
2 14129 026.0102 203.1067 5973370 144.3184 276.5106 02.05869982188988
UO-11
1 14781U 84021B 08212.80331150 .00000024 00000-0 10490-4 0 7329
2 14781 098.1524 247.4829 0008245 297.7726 062.2642 14.79655298310302
RS-15
1 23439U 94085A 08212.82748336 -.00000039 00000-0 10000-3 0 01822
2 23439 064.8153 064.4775 0147114 114.3857 247.2500 11.27552623559889
FO-29
1 24278U 96046B 08213.79001791 -.00000023 00000-0 93115-5 0 8276
2 24278 098.5831 124.2408 0351372 100.1014 263.9949 13.52938469590420
SO-33
1 25509U 98061B 08212.73753080 .00000042 00000-0 -19354-5 0 2538
2 25509 031.4314 070.0993 0354194 047.9894 315.0330 14.28218629509848
AO-40
1 26609U 00072B 08211.80047665 -.00000289 00000-0 10000-3 0 00973
2 26609 007.6455 069.4909 7924723 106.6070 344.8419 01.25583268035576
VO-52
1 28650U 05017B 08213.71340156 .00000024 00000-0 97391-5 0 9940
2 28650 097.7867 279.0962 0027259 358.0440 002.0637 14.81486181175194
PO-63
1 29712U 07001D 08213.77206681 .00000351 00000-0 52928-4 0 6671
2 29712 097.8725 271.1167 0013028 234.9850 125.0126 14.80225464 84062
AO-16
1 20439U 90005D 08213.51619457 .00000003 00000-0 16287-4 0 3821
2 20439 098.2332 191.3194 0011889 047.7558 312.4638 14.31799278967266
LO-19
1 20442U 90005G 08213.55615528 .00000101 00000-0 52526-4 0 3076
2 20442 098.2035 199.7591 0012649 045.9676 314.2556 14.32037816967420
AO-27
1 22825U 93061C 08212.88528184 -.00000101 00000-0 -23159-4 0 00309
2 22825 098.3861 171.2747 0009156 127.8072 232.3921 14.29243280774019
IO-26
1 22826U 93061D 08212.51175627 .00000006 00000-0 18748-4 0 07374
2 22826 098.3797 171.8053 0009548 125.0172 235.1908 14.29493011774059
PO-28
1 22829U 93061G 08212.82686759 .00000020 00000-0 23839-4 0 22
2 22829 098.3670 173.2047 0010629 098.0956 262.1425 14.30193917774364
GO-32
1 25397U 98043D 08213.82581299 -.00000050 00000-0 -38364-5 0 6609
2 25397 098.3618 246.7785 0002222 099.8864 260.2532 14.23146149522569
NO-44
1 26931U 01043C 08213.36303759 -.00000117 00000-0 -13386-4 0 9401
2 26931 067.0511 170.8522 0007341 269.0984 090.9258 14.29529078356724
SO-50
1 27607U 02058C 08213.66115028 -.00000064 00000-0 12475-4 0 6654
2 27607 064.5592 278.5716 0086377 270.6969 088.4241 14.71370676301510
CO-55
1 27844U 03031E 08212.54182104 .00000021 00000-0 29912-4 0 03635
2 27844 098.7160 220.2056 0010204 357.3868 002.7256 14.20589724263591
CO-57
1 27848U 03031J 08213.53194110 .00000006 00000-0 23113-4 0 3134
2 27848 098.7168 220.2709 0010139 357.6129 002.5001 14.20398313263709
AO-51
1 28375U 04025K 08212.80578132 -.00000006 00000-0 10968-4 0 1619
2 28375 098.0688 234.9186 0085207 020.9024 339.5609 14.40614412214681
CO-56
1 28941U 06005C 08213.77244585 .00015108 26329-5 11230-3 0 2468
2 28941 098.1112 330.6536 0159797 238.5881 119.9649 15.58542963136981
CP4
1 31122U 07012F 08213.72039777 .00000551 00000-0 13192-3 0 4002
2 31122 098.0404 277.6572 0085560 189.5971 170.3537 14.55147458 68550
CP3
1 31128U 07012M 08213.64630657 -.00000047 00000-0 00000 0 0 3946
2 31128 098.0363 275.1994 0102606 196.7516 163.0298 14.51963499 68388
NOAA-10
1 16969U 86073A 08212.96652190 -.00000080 00000-0 -14318-4 0 02260
2 16969 098.7219 234.8455 0013236 055.3397 304.9038 14.27364319137689
NOAA-11
1 19531U 88089A 08212.80017913 .00000225 00000-0 13942-3 0 02561
2 19531 098.7981 301.5181 0010935 306.8035 053.2140 14.14874759024073
NOAA-12
1 21263U 91032A 08212.92943773 -.00000002 00000-0 18086-4 0 07860
2 21263 098.7678 214.8769 0012883 003.5244 356.6023 14.25540091894623
MET-3/5
1 21655U 91056A 08212.95145962 .00000051 00000-0 10000-3 0 04843
2 21655 082.5539 073.4665 0012189 265.8905 094.0824 13.17016520815344
MET-2/21
1 22782U 93055A 08212.95954659 -.00000031 00000-0 -41963-4 0 02129
2 22782 082.5459 076.8546 0022703 163.7152 196.4739 13.83629769753188
OKEAN-4
1 23317U 94066A 08212.79020165 .00000010 00000-0 -17022-5 0 06552
2 23317 082.5390 274.3847 0021894 348.5843 011.4874 14.82625229744741
NOAA-14
1 23455U 94089A 08212.79051819 -.00000347 00000-0 -15986-3 0 02443
2 23455 098.9445 285.0545 0009888 026.7086 333.4585 14.13744154700519
SICH-1
1 23657U 95046A 08213.78954491 -.00000055 00000-0 -99629-5 0 4535
2 23657 082.5261 054.4419 0023572 337.7653 022.2523 14.81593740696828
NOAA-15
1 25338U 98030A 08212.82950929 -.00000028 00000-0 63953-5 0 05637
2 25338 098.5565 203.5828 0009443 276.5445 083.4607 14.24716946531014
RESURS
1 25394U 98043A 08212.73836740 -.00000004 00000-0 16131-4 0 9865
2 25394 098.3827 254.7064 0002481 069.6041 290.5404 14.24165996522641
FENGYUN1
1 25730U 99025A 08212.98282812 .00000702 00000-0 43896-3 0 05331
2 25730 098.7223 187.2832 0022386 047.1799 313.1247 14.07740744475127
OKEAN-0
1 25860U 99039A 08212.71191940 .00000029 00000-0 11646-4 0 04332
2 25860 097.7523 201.3380 0001661 091.3388 268.7999 14.73530507485809
NOAA-16
1 26536U 00055A 08212.84226713 -.00000208 00000-0 -87410-4 0 00333
2 26536 099.1581 202.9799 0011481 100.9030 259.3433 14.12490155404934
NOAA-17
1 27453U 02032A 08212.75738764 -.00000027 00000-0 67182-5 0 00280
2 27453 098.5319 276.1169 0011482 346.5085 013.5760 14.23990962317005
NOAA-18
1 28654U 05018A 08212.79954960 -.00000010 00000-0 18928-4 0 05249
2 28654 098.8670 153.1964 0013938 186.5504 173.5473 14.11181516164625
HUBBLE
1 20580U 90037B 08212.91334726 .00000281 00000-0 88791-5 0 01904
2 20580 028.4688 038.0284 0003778 130.6269 229.4651 15.00396007801559
PO-34
1 25520U 98064B 08212.47934729 .00000335 00000-0 67247-5 0 00521
2 25520 028.4601 248.9373 0005125 038.9714 321.1250 15.17214038539742
ISS
1 25544U 98067A 08212.83484381 .00006537 00000-0 51827-4 0 09552
2 25544 051.6415 152.0335 0010007 014.7331 090.0878 15.72736755555409
CO-58
1 28895U 05043F 08213.74568765 .00000177 00000-0 46800-4 0 837
2 28895 098.0952 106.6908 0016670 270.4317 089.5011 14.59686459146980
NCUBE2
1 28897U 05043H 08212.26564224 .00000065 00000-0 23151-4 0 06141
2 28897 098.0909 105.1714 0016248 278.2018 081.7330 14.59857681139053
FCAL
1 29667U 06055J 08146.34060426 .11864717 12752-4 73624-4 0 9790
2 29667 051.6107 065.3702 0009039 260.8350 099.5042 16.53464210 82911
FALCON
1 30776U 07006E 08212.55260197 .00000185 00000-0 16501-4 0 03775
2 30776 035.4346 250.4874 0001617 355.6568 004.4134 15.03026172076672
MAST
1 31126U 07012K 08212.61257114 .00000001 00000-0 10912-4 0 3872
2 31126 098.0357 275.3065 0094294 196.8104 162.9985 14.53436967 68329
CAPE1
1 31130U 07012P 08213.91625508 -.00000062 00000-0 -33462-5 0 3670
2 31130 098.0362 275.4650 0102597 195.7734 164.0250 14.51979930 68210
CUTE1-7
1 32785U 08021C 08211.40323307 .00000151 00000-0 26244-4 0 01160
2 32785 097.9899 271.2163 0015420 003.5932 356.5394 14.81379341013655
COMPASS
1 32787U 08021E 08213.76394356 .00000124 00000-0 22721-4 0 1071
2 32787 097.9867 273.5239 0016105 357.1935 002.9186 14.81440740 14006
AAUSAT2
1 32788U 08021F 08212.81149646 .00000325 00000-0 48278-4 0 01097
2 32788 097.9875 272.5893 0015579 003.8083 356.3240 14.81550423013864
DO-64
1 32789U 08021G 08212.68423374 .00000449 00000-0 64134-4 0 01182
2 32789 097.9904 272.4819 0015923 000.5833 359.5383 14.81439942013848
SEEDS
1 32791U 08021J 08213.77289472 .00000007 00000-0 78467-5 0 1056
2 32791 097.9886 273.5472 0016468 355.3867 004.7190 14.81297097 13972
CANX-2
1 32797U 08021L 08213.63232793 .00000133 00000-0 17053-4 0 558
2 32797 097.9887 273.4338 0015817 356.6248 003.5362 14.81373642 12667
RS-30
1 32953U 08025A 08212.79399208 .00000010 00000-0 00000-0 0 00720
2 32953 082.5009 096.4771 0018728 156.3762 203.8181 12.42996831008464
/EX
1
0
SB KEPS @ AMSAT $ORB08213.O
Orbital Elements 08213.OSCAR
HR AMSAT ORBITAL ELEMENTS FOR OSCAR SATELLITES
FROM WA5QGD FORT WORTH,TX July 31, 2008
Send Subscribe/unsubscribe to KEPS at
http://www.amsat.org/mailman/listinfo/keps
BID: ORB08213.O
TO ALL RADIO AMATEURS BT
Satellite: AO-07
Catalog number: 07530
Epoch time: 08212.62851404
Element set: 240
Inclination: 101.4629 deg
RA of node: 242.6681 deg
Eccentricity: 0.0011732
Arg of perigee: 176.0916 deg
Mean anomaly: 184.0239 deg
Mean motion: 12.53573812 rev/day
Decay rate: -2.7e-07 rev/day^2
Epoch rev: 54242
Checksum: 269
Satellite: AO-10
Catalog number: 14129
Epoch time: 08211.94988587
Element set: 0537
Inclination: 026.0102 deg
RA of node: 203.1067 deg
Eccentricity: 0.5973370
Arg of perigee: 144.3184 deg
Mean anomaly: 276.5106 deg
Mean motion: 02.05869982 rev/day
Decay rate: -2.29e-06 rev/day^2
Epoch rev: 18898
Checksum: 326
Satellite: UO-11
Catalog number: 14781
Epoch time: 08212.80331150
Element set: 732
Inclination: 098.1524 deg
RA of node: 247.4829 deg
Eccentricity: 0.0008245
Arg of perigee: 297.7726 deg
Mean anomaly: 062.2642 deg
Mean motion: 14.79655298 rev/day
Decay rate: 2.4e-07 rev/day^2
Epoch rev: 31030
Checksum: 295
Satellite: RS-15
Catalog number: 23439
Epoch time: 08212.82748336
Element set: 0182
Inclination: 064.8153 deg
RA of node: 064.4775 deg
Eccentricity: 0.0147114
Arg of perigee: 114.3857 deg
Mean anomaly: 247.2500 deg
Mean motion: 11.27552623 rev/day
Decay rate: -3.9e-07 rev/day^2
Epoch rev: 55988
Checksum: 312
Satellite: FO-29
Catalog number: 24278
Epoch time: 08213.79001791
Element set: 827
Inclination: 098.5831 deg
RA of node: 124.2408 deg
Eccentricity: 0.0351372
Arg of perigee: 100.1014 deg
Mean anomaly: 263.9949 deg
Mean motion: 13.52938469 rev/day
Decay rate: -2.3e-07 rev/day^2
Epoch rev: 59042
Checksum: 311
Satellite: SO-33
Catalog number: 25509
Epoch time: 08212.73753080
Element set: 253
Inclination: 031.4314 deg
RA of node: 070.0993 deg
Eccentricity: 0.0354194
Arg of perigee: 047.9894 deg
Mean anomaly: 315.0330 deg
Mean motion: 14.28218629 rev/day
Decay rate: 4.2e-07 rev/day^2
Epoch rev: 50984
Checksum: 295
Satellite: AO-40
Catalog number: 26609
Epoch time: 08211.80047665
Element set: 0097
Inclination: 007.6455 deg
RA of node: 069.4909 deg
Eccentricity: 0.7924723
Arg of perigee: 106.6070 deg
Mean anomaly: 344.8419 deg
Mean motion: 01.25583268 rev/day
Decay rate: -2.89e-06 rev/day^2
Epoch rev: 03557
Checksum: 332
Satellite: VO-52
Catalog number: 28650
Epoch time: 08213.71340156
Element set: 994
Inclination: 097.7867 deg
RA of node: 279.0962 deg
Eccentricity: 0.0027259
Arg of perigee: 358.0440 deg
Mean anomaly: 002.0637 deg
Mean motion: 14.81486181 rev/day
Decay rate: 2.4e-07 rev/day^2
Epoch rev: 17519
Checksum: 319
Satellite: PO-63
Catalog number: 29712
Epoch time: 08213.77206681
Element set: 667
Inclination: 097.8725 deg
RA of node: 271.1167 deg
Eccentricity: 0.0013028
Arg of perigee: 234.9850 deg
Mean anomaly: 125.0126 deg
Mean motion: 14.80225464 rev/day
Decay rate: 3.51e-06 rev/day^2
Epoch rev: 8406
Checksum: 298
/EX
SB KEPS @ AMSAT $ORB08213.D
Orbital Elements 08213.MICROS
HR AMSAT ORBITAL ELEMENTS FOR THE MICROSATS
FROM WA5QGD FORT WORTH,TX July 31, 2008
Send Subscribe/unsubscribe to KEPS at
http://www.amsat.org/mailman/listinfo/keps
BID: ORB08213.D
TO ALL RADIO AMATEURS BT
Satellite: AO-16
Catalog number: 20439
Epoch time: 08213.51619457
Element set: 382
Inclination: 098.2332 deg
RA of node: 191.3194 deg
Eccentricity: 0.0011889
Arg of perigee: 047.7558 deg
Mean anomaly: 312.4638 deg
Mean motion: 14.31799278 rev/day
Decay rate: 3.0e-08 rev/day^2
Epoch rev: 96726
Checksum: 331
Satellite: LO-19
Catalog number: 20442
Epoch time: 08213.55615528
Element set: 307
Inclination: 098.2035 deg
RA of node: 199.7591 deg
Eccentricity: 0.0012649
Arg of perigee: 045.9676 deg
Mean anomaly: 314.2556 deg
Mean motion: 14.32037816 rev/day
Decay rate: 1.01e-06 rev/day^2
Epoch rev: 96742
Checksum: 311
Satellite: AO-27
Catalog number: 22825
Epoch time: 08212.88528184
Element set: 0030
Inclination: 098.3861 deg
RA of node: 171.2747 deg
Eccentricity: 0.0009156
Arg of perigee: 127.8072 deg
Mean anomaly: 232.3921 deg
Mean motion: 14.29243280 rev/day
Decay rate: -1.01e-06 rev/day^2
Epoch rev: 77401
Checksum: 289
Satellite: IO-26
Catalog number: 22826
Epoch time: 08212.51175627
Element set: 0737
Inclination: 098.3797 deg
RA of node: 171.8053 deg
Eccentricity: 0.0009548
Arg of perigee: 125.0172 deg
Mean anomaly: 235.1908 deg
Mean motion: 14.29493011 rev/day
Decay rate: 6.0e-08 rev/day^2
Epoch rev: 77405
Checksum: 307
Satellite: PO-28
Catalog number: 22829
Epoch time: 08212.82686759
Element set: 2
Inclination: 098.3670 deg
RA of node: 173.2047 deg
Eccentricity: 0.0010629
Arg of perigee: 098.0956 deg
Mean anomaly: 262.1425 deg
Mean motion: 14.30193917 rev/day
Decay rate: 2.0e-07 rev/day^2
Epoch rev: 77436
Checksum: 311
Satellite: GO-32
Catalog number: 25397
Epoch time: 08213.82581299
Element set: 660
Inclination: 098.3618 deg
RA of node: 246.7785 deg
Eccentricity: 0.0002222
Arg of perigee: 099.8864 deg
Mean anomaly: 260.2532 deg
Mean motion: 14.23146149 rev/day
Decay rate: -5.0e-07 rev/day^2
Epoch rev: 52256
Checksum: 319
Satellite: NO-44
Catalog number: 26931
Epoch time: 08213.36303759
Element set: 940
Inclination: 067.0511 deg
RA of node: 170.8522 deg
Eccentricity: 0.0007341
Arg of perigee: 269.0984 deg
Mean anomaly: 090.9258 deg
Mean motion: 14.29529078 rev/day
Decay rate: -1.17e-06 rev/day^2
Epoch rev: 35672
Checksum: 313
Satellite: SO-50
Catalog number: 27607
Epoch time: 08213.66115028
Element set: 665
Inclination: 064.5592 deg
RA of node: 278.5716 deg
Eccentricity: 0.0086377
Arg of perigee: 270.6969 deg
Mean anomaly: 088.4241 deg
Mean motion: 14.71370676 rev/day
Decay rate: -6.4e-07 rev/day^2
Epoch rev: 30151
Checksum: 325
Satellite: CO-55
Catalog number: 27844
Epoch time: 08212.54182104
Element set: 0363
Inclination: 098.7160 deg
RA of node: 220.2056 deg
Eccentricity: 0.0010204
Arg of perigee: 357.3868 deg
Mean anomaly: 002.7256 deg
Mean motion: 14.20589724 rev/day
Decay rate: 2.1e-07 rev/day^2
Epoch rev: 26359
Checksum: 283
Satellite: CO-57
Catalog number: 27848
Epoch time: 08213.53194110
Element set: 313
Inclination: 098.7168 deg
RA of node: 220.2709 deg
Eccentricity: 0.0010139
Arg of perigee: 357.6129 deg
Mean anomaly: 002.5001 deg
Mean motion: 14.20398313 rev/day
Decay rate: 6.0e-08 rev/day^2
Epoch rev: 26370
Checksum: 272
Satellite: AO-51
Catalog number: 28375
Epoch time: 08212.80578132
Element set: 161
Inclination: 098.0688 deg
RA of node: 234.9186 deg
Eccentricity: 0.0085207
Arg of perigee: 020.9024 deg
Mean anomaly: 339.5609 deg
Mean motion: 14.40614412 rev/day
Decay rate: -6.0e-08 rev/day^2
Epoch rev: 21468
Checksum: 299
Satellite: CO-56
Catalog number: 28941
Epoch time: 08213.77244585
Element set: 246
Inclination: 098.1112 deg
RA of node: 330.6536 deg
Eccentricity: 0.0159797
Arg of perigee: 238.5881 deg
Mean anomaly: 119.9649 deg
Mean motion: 15.58542963 rev/day
Decay rate: 1.5108e-04 rev/day^2
Epoch rev: 13698
Checksum: 361
Satellite: CP4
Catalog number: 31122
Epoch time: 08213.72039777
Element set: 400
Inclination: 098.0404 deg
RA of node: 277.6572 deg
Eccentricity: 0.0085560
Arg of perigee: 189.5971 deg
Mean anomaly: 170.3537 deg
Mean motion: 14.55147458 rev/day
Decay rate: 5.51e-06 rev/day^2
Epoch rev: 6855
Checksum: 312
Satellite: CP3
Catalog number: 31128
Epoch time: 08213.64630657
Element set: 394
Inclination: 098.0363 deg
RA of node: 275.1994 deg
Eccentricity: 0.0102606
Arg of perigee: 196.7516 deg
Mean anomaly: 163.0298 deg
Mean motion: 14.51963499 rev/day
Decay rate: -4.7e-07 rev/day^2
Epoch rev: 6838
Checksum: 328
/EX
SB KEPS @ AMSAT $ORB08213.W
Orbital Elements 08213.WEATHER
HR AMSAT ORBITAL ELEMENTS FOR WEATHER SATELLITES
FROM WA5QGD FORT WORTH,TX July 31, 2008
Send Subscribe/unsubscribe to KEPS at
http://www.amsat.org/mailman/listinfo/keps
BID: ORB08213.W
TO ALL RADIO AMATEURS BT
Satellite: NOAA-10
Catalog number: 16969
Epoch time: 08212.96652190
Element set: 0226
Inclination: 098.7219 deg
RA of node: 234.8455 deg
Eccentricity: 0.0013236
Arg of perigee: 055.3397 deg
Mean anomaly: 304.9038 deg
Mean motion: 14.27364319 rev/day
Decay rate: -8.0e-07 rev/day^2
Epoch rev: 13768
Checksum: 319
Satellite: NOAA-11
Catalog number: 19531
Epoch time: 08212.80017913
Element set: 0256
Inclination: 098.7981 deg
RA of node: 301.5181 deg
Eccentricity: 0.0010935
Arg of perigee: 306.8035 deg
Mean anomaly: 053.2140 deg
Mean motion: 14.14874759 rev/day
Decay rate: 2.25e-06 rev/day^2
Epoch rev: 02407
Checksum: 277
Satellite: NOAA-12
Catalog number: 21263
Epoch time: 08212.92943773
Element set: 0786
Inclination: 098.7678 deg
RA of node: 214.8769 deg
Eccentricity: 0.0012883
Arg of perigee: 003.5244 deg
Mean anomaly: 356.6023 deg
Mean motion: 14.25540091 rev/day
Decay rate: -2.0e-08 rev/day^2
Epoch rev: 89462
Checksum: 317
Satellite: MET-3/5
Catalog number: 21655
Epoch time: 08212.95145962
Element set: 0484
Inclination: 082.5539 deg
RA of node: 073.4665 deg
Eccentricity: 0.0012189
Arg of perigee: 265.8905 deg
Mean anomaly: 094.0824 deg
Mean motion: 13.17016520 rev/day
Decay rate: 5.1e-07 rev/day^2
Epoch rev: 81534
Checksum: 307
Satellite: MET-2/21
Catalog number: 22782
Epoch time: 08212.95954659
Element set: 0212
Inclination: 082.5459 deg
RA of node: 076.8546 deg
Eccentricity: 0.0022703
Arg of perigee: 163.7152 deg
Mean anomaly: 196.4739 deg
Mean motion: 13.83629769 rev/day
Decay rate: -3.1e-07 rev/day^2
Epoch rev: 75318
Checksum: 337
Satellite: OKEAN-4
Catalog number: 23317
Epoch time: 08212.79020165
Element set: 0655
Inclination: 082.5390 deg
RA of node: 274.3847 deg
Eccentricity: 0.0021894
Arg of perigee: 348.5843 deg
Mean anomaly: 011.4874 deg
Mean motion: 14.82625229 rev/day
Decay rate: 1.0e-07 rev/day^2
Epoch rev: 74474
Checksum: 304
Satellite: NOAA-14
Catalog number: 23455
Epoch time: 08212.79051819
Element set: 0244
Inclination: 098.9445 deg
RA of node: 285.0545 deg
Eccentricity: 0.0009888
Arg of perigee: 026.7086 deg
Mean anomaly: 333.4585 deg
Mean motion: 14.13744154 rev/day
Decay rate: -3.47e-06 rev/day^2
Epoch rev: 70051
Checksum: 320
Satellite: SICH-1
Catalog number: 23657
Epoch time: 08213.78954491
Element set: 453
Inclination: 082.5261 deg
RA of node: 054.4419 deg
Eccentricity: 0.0023572
Arg of perigee: 337.7653 deg
Mean anomaly: 022.2523 deg
Mean motion: 14.81593740 rev/day
Decay rate: -5.5e-07 rev/day^2
Epoch rev: 69682
Checksum: 312
Satellite: NOAA-15
Catalog number: 25338
Epoch time: 08212.82950929
Element set: 0563
Inclination: 098.5565 deg
RA of node: 203.5828 deg
Eccentricity: 0.0009443
Arg of perigee: 276.5445 deg
Mean anomaly: 083.4607 deg
Mean motion: 14.24716946 rev/day
Decay rate: -2.8e-07 rev/day^2
Epoch rev: 53101
Checksum: 321
Satellite: RESURS
Catalog number: 25394
Epoch time: 08212.73836740
Element set: 986
Inclination: 098.3827 deg
RA of node: 254.7064 deg
Eccentricity: 0.0002481
Arg of perigee: 069.6041 deg
Mean anomaly: 290.5404 deg
Mean motion: 14.24165996 rev/day
Decay rate: -4.0e-08 rev/day^2
Epoch rev: 52264
Checksum: 309
Satellite: FENGYUN1
Catalog number: 25730
Epoch time: 08212.98282812
Element set: 0533
Inclination: 098.7223 deg
RA of node: 187.2832 deg
Eccentricity: 0.0022386
Arg of perigee: 047.1799 deg
Mean anomaly: 313.1247 deg
Mean motion: 14.07740744 rev/day
Decay rate: 7.02e-06 rev/day^2
Epoch rev: 47512
Checksum: 298
Satellite: OKEAN-0
Catalog number: 25860
Epoch time: 08212.71191940
Element set: 0433
Inclination: 097.7523 deg
RA of node: 201.3380 deg
Eccentricity: 0.0001661
Arg of perigee: 091.3388 deg
Mean anomaly: 268.7999 deg
Mean motion: 14.73530507 rev/day
Decay rate: 2.9e-07 rev/day^2
Epoch rev: 48580
Checksum: 304
Satellite: NOAA-16
Catalog number: 26536
Epoch time: 08212.84226713
Element set: 0033
Inclination: 099.1581 deg
RA of node: 202.9799 deg
Eccentricity: 0.0011481
Arg of perigee: 100.9030 deg
Mean anomaly: 259.3433 deg
Mean motion: 14.12490155 rev/day
Decay rate: -2.08e-06 rev/day^2
Epoch rev: 40493
Checksum: 282
Satellite: NOAA-17
Catalog number: 27453
Epoch time: 08212.75738764
Element set: 0028
Inclination: 098.5319 deg
RA of node: 276.1169 deg
Eccentricity: 0.0011482
Arg of perigee: 346.5085 deg
Mean anomaly: 013.5760 deg
Mean motion: 14.23990962 rev/day
Decay rate: -2.7e-07 rev/day^2
Epoch rev: 31700
Checksum: 312
Satellite: NOAA-18
Catalog number: 28654
Epoch time: 08212.79954960
Element set: 0524
Inclination: 098.8670 deg
RA of node: 153.1964 deg
Eccentricity: 0.0013938
Arg of perigee: 186.5504 deg
Mean anomaly: 173.5473 deg
Mean motion: 14.11181516 rev/day
Decay rate: -1.0e-07 rev/day^2
Epoch rev: 16462
Checksum: 318
/EX
SB KEPS @ AMSAT $ORB08213.M
Orbital Elements 08213.MISC
HR AMSAT ORBITAL ELEMENTS FOR MANNED AND MISCELLANEOUS SATELLITES
FROM WA5QGD FORT WORTH,TX July 31, 2008
Send Subscribe/unsubscribe to KEPS at
http://www.amsat.org/mailman/listinfo/keps
BID: ORB08213.M
TO ALL RADIO AMATEURS BT
Satellite: HUBBLE
Catalog number: 20580
Epoch time: 08212.91334726
Element set: 0190
Inclination: 028.4688 deg
RA of node: 038.0284 deg
Eccentricity: 0.0003778
Arg of perigee: 130.6269 deg
Mean anomaly: 229.4651 deg
Mean motion: 15.00396007 rev/day
Decay rate: 2.81e-06 rev/day^2
Epoch rev: 80155
Checksum: 285
Satellite: PO-34
Catalog number: 25520
Epoch time: 08212.47934729
Element set: 0052
Inclination: 028.4601 deg
RA of node: 248.9373 deg
Eccentricity: 0.0005125
Arg of perigee: 038.9714 deg
Mean anomaly: 321.1250 deg
Mean motion: 15.17214038 rev/day
Decay rate: 3.35e-06 rev/day^2
Epoch rev: 53974
Checksum: 283
Satellite: ISS
Catalog number: 25544
Epoch time: 08212.83484381
Element set: 0955
Inclination: 051.6415 deg
RA of node: 152.0335 deg
Eccentricity: 0.0010007
Arg of perigee: 014.7331 deg
Mean anomaly: 090.0878 deg
Mean motion: 15.72736755 rev/day
Decay rate: 6.537e-05 rev/day^2
Epoch rev: 55540
Checksum: 287
Satellite: CO-58
Catalog number: 28895
Epoch time: 08213.74568765
Element set: 83
Inclination: 098.0952 deg
RA of node: 106.6908 deg
Eccentricity: 0.0016670
Arg of perigee: 270.4317 deg
Mean anomaly: 089.5011 deg
Mean motion: 14.59686459 rev/day
Decay rate: 1.77e-06 rev/day^2
Epoch rev: 14698
Checksum: 359
Satellite: NCUBE2
Catalog number: 28897
Epoch time: 08212.26564224
Element set: 0614
Inclination: 098.0909 deg
RA of node: 105.1714 deg
Eccentricity: 0.0016248
Arg of perigee: 278.2018 deg
Mean anomaly: 081.7330 deg
Mean motion: 14.59857681 rev/day
Decay rate: 6.5e-07 rev/day^2
Epoch rev: 13905
Checksum: 309
Satellite: FCAL
Catalog number: 29667
Epoch time: 08146.34060426
Element set: 979
Inclination: 051.6107 deg
RA of node: 065.3702 deg
Eccentricity: 0.0009039
Arg of perigee: 260.8350 deg
Mean anomaly: 099.5042 deg
Mean motion: 16.53464210 rev/day
Decay rate: 1.1864717e-01 rev/day^2
Epoch rev: 8291
Checksum: 307
Satellite: FALCON
Catalog number: 30776
Epoch time: 08212.55260197
Element set: 0377
Inclination: 035.4346 deg
RA of node: 250.4874 deg
Eccentricity: 0.0001617
Arg of perigee: 355.6568 deg
Mean anomaly: 004.4134 deg
Mean motion: 15.03026172 rev/day
Decay rate: 1.85e-06 rev/day^2
Epoch rev: 07667
Checksum: 288
Satellite: MAST
Catalog number: 31126
Epoch time: 08212.61257114
Element set: 387
Inclination: 098.0357 deg
RA of node: 275.3065 deg
Eccentricity: 0.0094294
Arg of perigee: 196.8104 deg
Mean anomaly: 162.9985 deg
Mean motion: 14.53436967 rev/day
Decay rate: 1.0e-08 rev/day^2
Epoch rev: 6832
Checksum: 307
Satellite: CAPE1
Catalog number: 31130
Epoch time: 08213.91625508
Element set: 367
Inclination: 098.0362 deg
RA of node: 275.4650 deg
Eccentricity: 0.0102597
Arg of perigee: 195.7734 deg
Mean anomaly: 164.0250 deg
Mean motion: 14.51979930 rev/day
Decay rate: -6.2e-07 rev/day^2
Epoch rev: 6821
Checksum: 294
Satellite: CUTE1-7
Catalog number: 32785
Epoch time: 08211.40323307
Element set: 0116
Inclination: 097.9899 deg
RA of node: 271.2163 deg
Eccentricity: 0.0015420
Arg of perigee: 003.5932 deg
Mean anomaly: 356.5394 deg
Mean motion: 14.81379341 rev/day
Decay rate: 1.51e-06 rev/day^2
Epoch rev: 01365
Checksum: 290
Satellite: COMPASS
Catalog number: 32787
Epoch time: 08213.76394356
Element set: 107
Inclination: 097.9867 deg
RA of node: 273.5239 deg
Eccentricity: 0.0016105
Arg of perigee: 357.1935 deg
Mean anomaly: 002.9186 deg
Mean motion: 14.81440740 rev/day
Decay rate: 1.24e-06 rev/day^2
Epoch rev: 1400
Checksum: 295
Satellite: AAUSAT2
Catalog number: 32788
Epoch time: 08212.81149646
Element set: 0109
Inclination: 097.9875 deg
RA of node: 272.5893 deg
Eccentricity: 0.0015579
Arg of perigee: 003.8083 deg
Mean anomaly: 356.3240 deg
Mean motion: 14.81550423 rev/day
Decay rate: 3.25e-06 rev/day^2
Epoch rev: 01386
Checksum: 315
Satellite: DO-64
Catalog number: 32789
Epoch time: 08212.68423374
Element set: 0118
Inclination: 097.9904 deg
RA of node: 272.4819 deg
Eccentricity: 0.0015923
Arg of perigee: 000.5833 deg
Mean anomaly: 359.5383 deg
Mean motion: 14.81439942 rev/day
Decay rate: 4.49e-06 rev/day^2
Epoch rev: 01384
Checksum: 333
Satellite: SEEDS
Catalog number: 32791
Epoch time: 08213.77289472
Element set: 105
Inclination: 097.9886 deg
RA of node: 273.5472 deg
Eccentricity: 0.0016468
Arg of perigee: 355.3867 deg
Mean anomaly: 004.7190 deg
Mean motion: 14.81297097 rev/day
Decay rate: 7.0e-08 rev/day^2
Epoch rev: 1397
Checksum: 334
Satellite: CANX-2
Catalog number: 32797
Epoch time: 08213.63232793
Element set: 55
Inclination: 097.9887 deg
RA of node: 273.4338 deg
Eccentricity: 0.0015817
Arg of perigee: 356.6248 deg
Mean anomaly: 003.5362 deg
Mean motion: 14.81373642 rev/day
Decay rate: 1.33e-06 rev/day^2
Epoch rev: 1266
Checksum: 313
Satellite: RS-30
Catalog number: 32953
Epoch time: 08212.79399208
Element set: 0072
Inclination: 082.5009 deg
RA of node: 096.4771 deg
Eccentricity: 0.0018728
Arg of perigee: 156.3762 deg
Mean anomaly: 203.8181 deg
Mean motion: 12.42996831 rev/day
Decay rate: 1.0e-07 rev/day^2
Epoch rev: 00846
Checksum: 306
/EX
1
0